Weather History for Mendoza, Argentina

Change the Weather History Date:

Sunday, December 30, 2012

  Actual Average Record
Temperature  
Mean Temperature 84 °F -  
Max Temperature 99 °F 90 °F 99 °F (2012)
Min Temperature 68 °F 65 °F 60 °F (2003)
Cooling Degree Days 18    
Growing Degree Days 34 (Base 50)    
Moisture  
Dew Point 54 °F    
Average Humidity 35    
Maximum Humidity 53    
Minimum Humidity 24    
Precipitation  
Precipitation 0.00 in 0.05 in - ()
Sea Level Pressure  
Sea Level Pressure 29.66 in    
Wind  
Wind Speed 3 mph ()    
Max Wind Speed 12 mph    
Max Gust Speed -    
Visibility 7.1 miles    
Events Thunderstorm    
Averages and records for this station are not official NWS values.
T = Trace of Precipitation, MM = Missing Value Source: Averaged Metar Reports

Daily Weather History Graph

Daily Weather History Graph

Search for Another Location

Airport:

Trip Planner

Search our weather history database for the weather conditions in past years. The results will help you decide how hot, cold, wet, or windy it might be!

Date:

Astronomy

Dec. 30, 2012 Rise Set
Actual Time 6:29 AM ART 8:46 PM ART
Civil Twilight 6:00 AM ART 9:14 PM ART
Nautical Twilight 5:25 AM ART 9:49 PM ART
Astronomical Twilight 4:47 AM ART 10:27 PM ART
Moon 10:10 PM ART (12/30) 8:29 AM ART (12/30)
Length of Visible Light 15h 14m
Length of Day
14h 17m
Waning Gibbous, 96% of the Moon is Illuminated
Dec 30
Waning Gibbous
Jan 5
Last Quarter
Jan 11
New
Jan 18
First Quarter
Jan 27
Full

Hourly Weather History & Observations

Time (ART) Temp. Heat Index Dew Point Humidity Pressure Visibility Wind Dir Wind Speed Gust Speed Precip Events Conditions
12:00 AM 81 °F - 53 °F 28% 29.61 in 6 mi Calm Calm - -   Smoke
12:00 AM 80.6 °F 80.3 °F 53.6 °F 39% 29.74 in 6.2 mi Calm Calm - N/A   Unknown
1:00 AM 77.0 °F - 50.0 °F 39% 29.74 in 6.2 mi Calm Calm - N/A   Unknown
2:00 AM 73.4 °F - 51.8 °F 47% 29.74 in - Calm Calm - N/A   Clear
3:00 AM 72 °F - 53 °F 41% 29.57 in 9 mi Calm Calm - -   Clear
3:00 AM 71.6 °F - 53.6 °F 53% 29.71 in - Calm Calm - N/A   Clear
4:00 AM 71.6 °F - 51.8 °F 50% 29.71 in - SW 2.3 mph - N/A   Clear
5:00 AM 73.4 °F - 48.2 °F 41% 29.71 in - SSW 5.8 mph - N/A   Clear
6:00 AM 73 °F - 46 °F 27% 29.58 in 9 mi South 5.8 mph - -   Scattered Clouds
6:00 AM 73.4 °F - 46.4 °F 38% 29.74 in - South 5.8 mph - N/A   Clear
7:00 AM 73.4 °F - 46.4 °F 38% 29.74 in - SSW 5.8 mph - N/A   Clear
8:00 AM 77.0 °F - 50.0 °F 39% 29.77 in - SE 4.6 mph - N/A   Clear
9:00 AM 78 °F - 54 °F 32% 29.65 in 9 mi East 6.9 mph - -  
9:00 AM 78.8 °F - 53.6 °F 42% 29.80 in - East 6.9 mph - N/A   Clear
10:00 AM 82.4 °F 81.4 °F 53.6 °F 37% 29.77 in - East 9.2 mph - N/A   Clear
11:00 AM 82.4 °F 81.4 °F 53.6 °F 37% 29.77 in - East 11.5 mph - N/A   Clear
12:00 PM 86 °F - 55 °F 25% 29.59 in 9 mi East 11.5 mph - -  
12:00 PM 86.0 °F 84.5 °F 55.4 °F 35% 29.74 in - East 11.5 mph - N/A   Clear
1:00 PM 89.6 °F 87.7 °F 55.4 °F 31% 29.71 in - East 9.2 mph - N/A   Clear
2:00 PM 91.4 °F 89.9 °F 57.2 °F 31% 29.68 in - East 6.9 mph - N/A   Clear
3:00 PM 93.2 °F 91.3 °F 55.4 °F 28% 29.65 in - Calm Calm - N/A   Clear
4:00 PM 95.0 °F 92.7 °F 53.6 °F 25% 29.62 in - South 4.6 mph - N/A   Clear
5:00 PM 96.8 °F 95.8 °F 57.2 °F 27% 29.59 in 6.2 mi SE 4.6 mph - N/A   Partly Cloudy
6:00 PM 98.6 °F 97.2 °F 55.4 °F 24% 29.56 in 6.2 mi South 4.6 mph - N/A   Partly Cloudy
7:00 PM 96.8 °F 95.1 °F 55.4 °F 25% 29.56 in 6.2 mi Calm Calm - N/A   Partly Cloudy
8:00 PM 93.2 °F 92.6 °F 59.0 °F 32% 29.56 in 6.2 mi SE 4.6 mph - N/A Thunderstorm Partly Cloudy
9:00 PM 90 °F - 63 °F 31% 29.42 in 9 mi Calm Calm - -   Mostly Cloudy
9:00 PM 89.6 °F 90.1 °F 62.6 °F 40% 29.56 in 6.2 mi Calm Calm - N/A Thunderstorm Partly Cloudy
10:00 PM 87.8 °F 86.5 °F 57.2 °F 35% 29.59 in 6.2 mi WSW 2.3 mph - N/A Thunderstorm Partly Cloudy
11:00 PM 86.0 °F 84.9 °F 57.2 °F 37% 29.62 in 6.2 mi West 2.3 mph - N/A Thunderstorm Partly Cloudy